TimePDT,TemperatureF,Dew PointF,Humidity,Sea Level PressureIn,VisibilityMPH,Wind Direction,Wind SpeedMPH,Gust SpeedMPH,PrecipitationIn,Events,Conditions,WindDirDegrees,DateUTC
12:53 AM,46.0,36.0,68,30.31,10.0,WSW,9.2,-,N/A,,Clear,240,2014-03-15 07:53:00
1:53 AM,41.0,34.0,76,30.33,10.0,East,6.9,-,N/A,,Clear,80,2014-03-15 08:53:00
2:53 AM,41.0,35.1,79,30.35,10.0,ESE,4.6,-,N/A,,Clear,120,2014-03-15 09:53:00
3:53 AM,41.0,35.1,79,30.35,10.0,ESE,5.8,-,N/A,,Overcast,110,2014-03-15 10:53:00
4:53 AM,41.0,34.0,76,30.36,10.0,ENE,4.6,-,N/A,,Scattered Clouds,70,2014-03-15 11:53:00
5:53 AM,39.9,34.0,79,30.36,10.0,Calm,Calm,-,N/A,,Mostly Cloudy,0,2014-03-15 12:53:00
6:53 AM,39.9,35.1,83,30.36,10.0,Calm,Calm,-,N/A,,Overcast,0,2014-03-15 13:53:00
7:53 AM,39.9,36.0,86,30.37,10.0,Calm,Calm,-,N/A,,Mostly Cloudy,0,2014-03-15 14:53:00
8:53 AM,43.0,37.0,80,30.37,10.0,Calm,Calm,-,N/A,,Mostly Cloudy,0,2014-03-15 15:53:00
9:53 AM,46.0,37.9,73,30.37,10.0,ENE,4.6,-,N/A,,Overcast,70,2014-03-15 16:53:00
10:53 AM,48.0,37.9,68,30.37,10.0,Calm,Calm,-,N/A,,Clear,0,2014-03-15 17:53:00
11:53 AM,52.0,39.0,61,30.35,10.0,Calm,Calm,-,N/A,,Clear,0,2014-03-15 18:53:00
12:53 PM,55.0,39.0,55,30.34,10.0,Calm,Calm,-,N/A,,Clear,0,2014-03-15 19:53:00
1:53 PM,59.0,37.9,46,30.30,10.0,SW,3.5,-,N/A,,Partly Cloudy,230,2014-03-15 20:53:00
2:53 PM,62.1,37.9,41,30.27,10.0,Calm,Calm,-,N/A,,Clear,0,2014-03-15 21:53:00
3:53 PM,64.0,36.0,35,30.25,10.0,Calm,Calm,-,N/A,,Clear,0,2014-03-15 22:53:00
4:53 PM,64.9,37.0,36,30.22,10.0,Calm,Calm,-,N/A,,Clear,0,2014-03-15 23:53:00
5:53 PM,64.9,37.0,36,30.21,10.0,Calm,Calm,-,N/A,,Clear,0,2014-03-16 00:53:00
6:53 PM,60.1,39.0,46,30.21,10.0,NW,12.7,19.6,N/A,,Clear,310,2014-03-16 01:53:00
7:53 PM,62.1,41.0,46,30.22,10.0,NW,17.3,-,N/A,,Clear,310,2014-03-16 02:53:00
8:53 PM,62.1,44.1,52,30.22,10.0,NW,18.4,27.6,N/A,,Clear,310,2014-03-16 03:53:00
9:53 PM,60.1,45.0,57,30.23,10.0,SSW,5.8,-,N/A,,Clear,210,2014-03-16 04:53:00
10:53 PM,61.0,46.9,60,30.25,10.0,WNW,13.8,20.7,N/A,,Clear,290,2014-03-16 05:53:00
11:53 PM,57.0,48.0,72,30.23,10.0,NW,17.3,21.9,N/A,,Clear,320,2014-03-16 06:53:00